Miscellaneous Local Product
Issued by NWS Hastings, NE

Home | Current Version | Previous Version | Text Only | Print | Product List | Glossary On
Versions: 1 2 3 4 5 6 7 8 9 10 11 12 13 14 15 16 17 18 19 20 21 22 23 24 25 26 27 28 29 30 31 32 33 34 35 36 37 38 39 40 41 42 43 44 45 46 47 48 49 50
000
AXUS43 KGID 302302
MISGRI

GID CWA HOURLY WEATHER ROUNDUP
NATIONAL WEATHER SERVICE HASTINGS NE
600 PM CDT SAT AUG 30 2014

NOTE: "FAIR" INDICATES FEW OR NO CLOUDS BELOW 12,000 FEET WITH NO
SIGNIFICANT WEATHER AND/OR OBSTRUCTIONS TO VISIBILITY.

...SOUTH CENTRAL NEBRASKA...

CITY           SKY/WX    TMP DP  RH WIND       PRES   REMARKS
GRAND ISLAND   SUNNY     82  66  58 SE13      29.87F
HASTINGS       SUNNY     83  61  47 S8        29.86F
KEARNEY        SUNNY     82  64  54 SE13      29.87S
ORD            SUNNY     80  64  58 S10       29.84F
YORK           SUNNY     81 N/A N/A SE9       29.88F
AURORA         SUNNY     81  65  58 S8        29.87F
LEXINGTON      SUNNY     84  65  53 SE12      29.84F
HOLDREGE       SUNNY     84  63  49 CALM      29.85F
HEBRON         SUNNY     85  59  42 S8        29.87F

...NEBRASKA PANHANDLE...

CITY           SKY/WX    TMP DP  RH WIND       PRES   REMARKS
CHADRON        SUNNY     93  44  18 S14       29.68F
ALLIANCE       SUNNY     88  47  24 S23G30    29.78F
SCOTTSBLUFF    MOSUNNY   86  46  24 SW17      29.78S
SIDNEY         SUNNY     86  40  19 S13       29.86F

...WESTERN AND NORTH CENTRAL NEBRASKA...

CITY           SKY/WX    TMP DP  RH WIND       PRES   REMARKS
VALENTINE      SUNNY     85  60  42 SE20G30   29.77F
AINSWORTH      SUNNY     80  62  53 SE17      29.81F
ONEILL         SUNNY     80  63  56 S13G18    29.84F
BROKEN BOW     SUNNY     81  65  58 S15G26    29.85F
IMPERIAL       SUNNY     89  49  25 S15       29.83F
NORTH PLATTE   SUNNY     84  60  44 SE8       29.82F
MCCOOK         SUNNY     91  54  28 S13       29.82F

...EASTERN NEBRASKA...

CITY           SKY/WX    TMP DP  RH WIND       PRES   REMARKS
NORFOLK        SUNNY     79  62  56 SE10      29.86F
SO SIOUX CITY  SUNNY     76  61  59 CALM      29.87S
TEKAMAH        SUNNY     80  63  55 S5        29.87S
COLUMBUS       SUNNY     79  63  57 SE7       29.88F
ALBION         SUNNY     78  63  60 SE9       29.87F
OMAHA EPPLEY   MOSUNNY   80  64  58 SE7       29.87F
OFFUTT AFB     SUNNY     81  64  57 VRB5      29.87F
MILLARD        SUNNY     82  66  58 S5        29.87S
LINCOLN        SUNNY     85  63  47 S9        29.87S
NEBRASKA CITY  SUNNY     82  64  55 NE3       29.87F
BEATRICE       SUNNY     85  64  48 S5        29.86F
FALLS CITY     SUNNY     86  68  54 E5        29.86F

...NORTHERN KANSAS...

CITY           SKY/WX    TMP DP  RH WIND       PRES   REMARKS
GOODLAND       SUNNY     89  46  22 S9        29.87F
HILL CITY      SUNNY     91  53  27 S15       29.85F
NORTON         CLEAR     91  46  21 S13G20    29.84S
PHILLIPSBURG   SUNNY     90  54  29 S10G16    29.84F
SMITH CENTER   SUNNY     88  55  33 S8        29.85F
BELOIT         SUNNY     90  61  37 S10       29.84F
HAYS           MOSUNNY   91  55  29 S18       29.86F
RUSSELL        SUNNY     89  58  34 SE17      29.85F
CONCORDIA      SUNNY     86  64  47 S10       29.86F
SALINA         SUNNY     93  56  28 S12       29.86F HX  91
TOPEKA         SUNNY     88  65  46 NE3       29.86F HX  90



USA.gov is the U.S. government's official web portal to all federal, state and local government web resources and services.